Flag for Australia Weather past 2 weeks in Alice Springs, Northern Territory, Australia

Now
70 °F

Sunny.


Feels Like: 70 °F
Forecast: 37 / 67 °F
Wind: 12 mph from Southeast

Location: Alice Springs Aerodrome

Current Time: Jul 6, 2015 at 4:39:24 PM

Latest Report: Jul 6, 2015 at 4:00 PM


Visibility: 10 mi

Pressure: 30.07 "Hg (28.11 "Hg at 581m altitude)

Humidity: 20%

Dew point: 27 °F

Location of Alice SpringsLocation

Historic Weather in Alice Springs — Graph

°F

Alice Springs temperature yesterday

Maximum temperature yesterday: 68 °F (at 3:30 PM)
Minimum temperature yesterday: 30 °F (at 4:30 AM)
Average temperature yesterday: 47 °F

Past Weeks' High & Low Weather Summary

 TemperatureHumidityPressure
High79 °F (Jun 23, 3:00 PM)100% (Jun 26, 6:00 AM)30.45 "Hg (Jun 26, 6:00 AM)
Low30 °F (Jul 4, 7:00 AM)4% (Jun 22, 1:30 PM)30.04 "Hg (Jun 22, 2:30 PM)
Average51 °F53%30.26 "Hg
* Reported Jun 21 3:30 PM — Jul 6 3:30 PM, Alice Springs, Weather by CustomWeather, © 2015

Note: Actual official high and low records may vary slightly from our data, if they occured in-between our weather recording intervals... More about our weather records

Advertising

Alice Springs weather history for previous 24 hours

 ConditionsComfort  
Time TempWeatherWind HumidityBarometerVisibility
3:30 PM
Mon, Jul 6
70 °FSunny.9 mph21%30.07 "Hg10 mi
3:00 PM70 °FSunny.9 mph21%30.09 "Hg10 mi
2:30 PM70 °FPassing clouds.8 mph23%30.09 "HgN/A
2:00 PM70 °FPassing clouds.8 mph21%30.09 "HgN/A
1:30 PM68 °FPassing clouds.8 mph24%30.12 "HgN/A
12:30 PM68 °FPassing clouds.13 mph23%30.15 "HgN/A
12:00 PM66 °FPassing clouds.12 mph26%30.15 "HgN/A
11:30 AM64 °FSunny.8 mph28%30.18 "Hg10 mi
11:00 AM63 °FSunny.2 mph27%30.18 "Hg10 mi
10:30 AM61 °FSunny.No wind31%30.18 "Hg10 mi
10:00 AM57 °FSunny.1 mph33%30.18 "Hg10 mi
9:30 AM54 °FSunny.2 mph35%30.18 "Hg10 mi
9:00 AM48 °FSunny.3 mph40%30.18 "Hg10 mi
8:30 AM43 °FSunny.No wind46%30.15 "Hg10 mi
8:00 AM37 °FSunny.6 mph52%30.15 "Hg10 mi
7:00 AM34 °FSunny.5 mph60%30.15 "Hg10 mi
6:30 AM36 °FClear.6 mph56%30.12 "Hg10 mi
6:00 AM34 °FClear.6 mph56%30.12 "Hg10 mi
5:30 AM34 °FClear.6 mphN/A30.12 "HgN/A
5:00 AM36 °FClear.6 mphN/A30.12 "HgN/A
4:30 AM34 °FClear.6 mphN/A30.12 "HgN/A
4:00 AM34 °FClear.5 mphN/A30.12 "HgN/A
3:30 AM36 °FClear.5 mphN/A30.12 "HgN/A
3:00 AM34 °FClear.3 mphN/A30.12 "HgN/A
2:30 AM37 °FClear.6 mphN/A30.12 "HgN/A
2:00 AM36 °FClear.1 mphN/A30.15 "HgN/A
1:30 AM39 °FClear.6 mph48%30.15 "HgN/A
1:00 AM36 °FClear.7 mphN/A30.15 "HgN/A
12:30 AM41 °FClear.5 mph39%30.15 "HgN/A
12:00 AM39 °FClear.6 mphN/A30.15 "HgN/A
11:30 PM
Sun, Jul 5
41 °FClear.6 mph39%30.15 "HgN/A
11:00 PM41 °FClear.6 mph39%30.15 "HgN/A
10:30 PM41 °FClear.No wind39%30.15 "HgN/A
10:00 PM43 °FClear.No wind46%30.15 "HgN/A
9:30 PM45 °FClear.6 mph39%30.15 "HgN/A
9:00 PM46 °FClear.5 mph32%30.15 "HgN/A
8:30 PM46 °FClear.No wind32%30.12 "HgN/A
8:00 PM48 °FClear.No wind32%30.12 "HgN/A
7:30 PM50 °FClear.No wind30%30.12 "HgN/A
6:30 PM57 °FClear.6 mph31%30.09 "HgN/A
5:30 PM64 °FClear.7 mph16%30.09 "Hg10 mi
5:00 PM66 °FPassing clouds.6 mph15%30.09 "HgN/A
4:30 PM66 °FPassing clouds.6 mph15%30.09 "HgN/A
4:00 PM68 °FSunny.3 mph14%30.09 "Hg10 mi
Weather by CustomWeather, © 2015

See weather overviewHow to use our weather pages